Theta_e
342 342 344 349 349 349 349 350 349 350 350 350 349 350 350 350 349 349 348 348 349 348 348 348 348 347 345 344 343 343 343 343 342 342 342 343 342 342 342 342 342 344 344 343 343 343 344 343 342 341 339 339 339 341 342 342 343 343 343 343 343 339 339 339 339 339 339 340 341 342 342 342 343 344 344 345 345 344 343 344 344 341 341 341 346
341 343 343 346 349 349 350 349 349 350 349 350 350 350 349 349 349 348 348 349 348 348 347 347 346 346 345 343 343 343 343 342 342 342 341 341 341 341 341 341 343 343 344 343 342 342 342 342 341 340 340 339 340 342 343 343 343 342 342 342 340 339 337 337 337 338 338 339 339 339 338 340 340 341 342 343 344 343 342 343 343 340 339 344 344
342 343 344 346 349 349 349 349 349 349 350 350 350 350 349 349 348 348 348 348 348 347 347 345 345 345 344 343 343 343 342 342 341 341 341 341 339 341 347 347 346 346 345 343 339 338 338 341 340 340 340 341 342 343 343 343 343 343 340 338 337 338 337 336 336 337 337 337 338 339 338 338 337 339 341 341 342 342 341 342 342 342 339 345 344
342 343 343 345 347 348 349 349 349 349 349 349 349 349 348 348 348 347 347 347 348 347 347 345 344 344 344 342 342 343 342 342 341 340 339 339 342 343 344 345 346 343 342 341 340 340 340 340 340 340 338 341 342 342 342 342 343 343 341 339 338 337 337 336 336 336 337 337 336 334 333 330 334 337 338 340 339 340 339 339 341 342 343 343 343
342 343 343 344 345 347 348 348 349 349 349 349 349 349 348 348 347 347 347 347 347 347 346 345 344 344 343 341 342 342 342 341 341 340 339 340 340 346 346 345 345 343 341 341 341 341 340 340 339 340 341 341 341 341 341 342 343 340 340 340 338 337 337 336 336 336 336 336 334 332 328 329 331 336 338 338 338 338 337 338 338 339 339 341 342
342 343 344 344 344 345 347 349 349 349 349 349 348 348 348 348 348 347 347 346 347 346 346 344 343 343 343 341 342 342 341 341 340 339 339 341 346 346 345 344 345 344 344 344 343 342 341 340 339 340 340 340 340 341 342 343 343 341 337 337 337 337 336 336 336 335 335 334 333 328 328 329 330 332 338 338 337 337 337 336 338 339 338 338 339
342 343 344 344 344 344 346 349 349 349 349 348 348 348 347 348 347 346 347 346 347 346 345 344 343 342 341 341 341 342 341 340 340 339 338 341 342 345 344 344 344 342 341 341 340 339 339 339 339 340 341 340 341 341 342 344 344 340 337 337 337 337 337 337 336 335 333 329 325 326 327 328 329 330 337 338 338 337 336 337 338 337 338 338 337
342 343 345 344 344 344 346 349 349 349 349 348 348 348 347 348 347 346 346 346 346 346 345 343 342 341 341 341 341 341 340 339 339 338 339 339 341 345 344 343 343 342 342 341 340 339 339 338 338 340 341 340 340 341 342 343 342 342 341 340 339 338 337 336 336 335 333 326 325 325 326 328 329 330 337 338 337 337 337 337 336 342 342 341 338
341 343 344 344 343 343 346 347 349 349 349 349 348 348 348 348 347 346 346 346 346 346 344 343 341 340 340 341 341 340 340 339 338 338 339 345 345 342 343 342 341 341 342 340 339 338 338 338 339 340 340 340 339 340 340 342 342 342 342 341 340 339 338 337 336 335 333 331 331 331 330 329 330 331 338 341 340 340 339 339 340 339 341 338 339
342 344 344 343 343 342 346 347 349 349 349 348 348 347 348 347 347 346 346 345 346 346 344 342 341 340 339 339 339 339 339 339 337 338 342 344 344 344 344 344 343 343 342 340 338 338 338 337 338 339 339 339 339 338 339 341 341 341 341 341 340 339 337 336 335 333 331 331 331 332 334 336 333 334 338 341 342 341 339 336 338 337 337 337 338
343 344 343 343 342 343 348 349 349 348 348 348 348 348 348 347 347 346 345 346 346 345 344 343 342 341 341 340 340 339 339 338 337 338 339 342 342 342 342 342 342 342 341 339 338 338 337 337 337 339 339 338 337 338 338 340 340 340 340 339 339 338 336 335 333 331 331 331 331 332 335 336 332 334 340 340 341 340 337 336 337 338 338 338 338
344 344 343 343 345 342 347 347 348 349 349 348 348 347 348 347 347 346 346 345 345 345 343 341 340 340 340 340 339 339 338 338 337 337 339 340 341 341 341 341 341 340 339 338 338 337 337 337 337 338 337 337 337 337 338 338 339 338 338 338 337 336 334 333 330 330 330 331 331 331 331 332 332 335 340 340 340 338 337 337 337 339 338 338 338
343 343 343 343 343 342 345 347 347 348 348 348 348 347 347 347 346 346 345 345 345 345 343 341 340 340 341 341 340 339 338 338 337 336 340 339 339 339 340 340 340 339 338 338 337 337 337 336 337 337 336 336 336 336 336 336 336 336 336 335 334 334 332 331 329 330 330 330 330 330 330 332 332 340 340 340 340 338 339 337 338 338 337 337 337
341 342 342 343 343 344 341 343 345 347 348 348 347 348 347 347 346 346 346 345 345 345 344 341 339 339 340 340 340 339 338 337 337 336 336 336 336 336 337 337 336 336 335 334 334 334 334 334 336 335 335 335 335 335 336 336 334 334 334 333 332 331 328 328 329 327 328 329 330 330 331 331 333 338 339 339 339 339 337 336 337 337 336 335 336
341 341 342 342 342 342 341 340 343 344 346 347 347 347 347 346 346 346 346 345 344 344 344 341 339 339 339 340 340 339 338 337 337 336 336 336 335 335 335 334 334 334 333 333 333 333 333 333 335 335 335 335 334 334 334 334 334 333 332 331 330 328 326 323 325 325 325 326 325 328 329 330 336 337 337 337 336 337 336 336 336 335 335 334 334
342 341 341 341 341 341 341 339 336 339 342 345 345 346 347 347 347 346 345 345 344 344 344 341 339 339 339 339 339 339 339 338 337 337 336 335 336 336 335 334 333 333 332 332 333 332 332 333 334 334 334 333 332 333 333 333 333 332 332 331 329 327 324 323 322 322 322 322 323 324 329 330 335 337 336 337 336 335 335 335 335 334 334 333 332
342 340 340 340 340 340 339 340 336 331 334 337 340 342 344 346 346 346 345 345 344 344 344 342 339 339 339 339 338 337 337 337 337 336 336 335 335 334 333 333 333 332 333 332 333 332 331 333 333 333 332 331 331 332 332 332 331 330 329 328 327 327 324 323 323 322 322 323 322 322 324 329 333 335 336 336 335 335 334 333 333 333 332 332 331
340 340 339 339 339 339 340 337 336 338 336 333 333 338 342 345 344 344 344 343 343 344 344 342 339 339 339 338 338 337 337 337 336 336 336 335 334 333 332 333 333 332 332 332 331 331 331 332 332 331 330 329 330 331 331 330 330 328 326 326 325 324 323 323 322 322 323 325 324 324 325 333 333 334 335 335 335 335 333 333 332 331 331 330 330
339 340 340 339 339 339 339 337 338 337 336 336 335 336 336 340 342 342 342 342 342 342 342 339 337 337 337 335 334 333 333 334 335 335 335 334 332 331 333 332 333 332 332 331 330 330 331 330 330 329 328 328 329 330 329 328 327 326 325 323 321 320 319 320 321 322 322 323 324 325 326 332 333 334 334 335 334 334 334 333 331 330 329 329 328
337 339 340 340 339 339 338 338 338 338 338 337 335 335 333 334 338 339 339 340 340 339 338 335 332 331 330 328 326 325 325 326 326 328 330 332 329 327 331 332 332 332 331 331 330 330 330 329 328 327 326 326 327 328 327 326 325 324 322 321 318 317 317 317 319 320 322 323 325 326 330 332 333 333 334 334 334 332 332 332 330 329 328 327 326
337 338 339 339 339 339 338 338 338 339 338 338 336 336 334 331 333 332 334 337 336 335 334 328 324 322 323 321 323 324 323 324 324 324 322 323 322 324 329 331 332 331 331 330 330 329 328 327 326 325 324 321 320 322 323 324 323 321 320 317 315 314 314 314 316 318 320 322 325 327 330 330 334 334 333 333 332 332 331 331 329 328 327 326 326
334 335 337 337 338 339 338 338 338 339 339 339 339 336 333 334 336 336 336 334 330 328 329 329 327 324 320 323 324 323 323 322 323 325 322 322 322 322 326 330 331 330 330 330 329 327 326 325 325 323 322 320 316 310 312 317 319 319 317 314 312 311 311 312 313 314 316 321 325 328 330 331 330 335 334 333 332 332 330 330 329 327 326 325 325
332 334 334 336 337 338 339 339 339 340 339 338 339 336 336 337 337 337 336 330 331 331 331 328 327 325 324 324 323 324 322 321 321 322 321 320 321 322 325 328 330 329 329 328 327 326 324 323 322 320 317 314 307 307 308 309 311 313 312 311 310 310 310 310 310 311 313 317 323 328 329 331 331 332 332 333 331 331 329 328 327 327 326 324 322
331 332 333 335 336 337 337 338 339 340 339 339 338 336 336 337 337 338 337 335 334 334 332 331 327 325 325 324 323 323 322 320 321 321 320 320 320 320 322 324 326 325 325 325 325 324 324 321 318 314 310 306 304 305 306 307 308 309 310 309 309 309 309 308 309 311 312 314 322 328 329 330 330 331 332 331 330 328 328 327 326 325 323 323 322
331 329 330 332 334 336 336 336 336 339 339 339 338 337 336 336 337 338 338 336 336 336 334 332 328 326 326 325 325 324 321 318 318 318 318 317 317 317 317 316 316 315 317 314 313 313 311 306 304 305 303 303 303 303 304 305 306 307 307 308 308 307 307 307 307 308 310 313 316 325 326 328 329 331 330 330 329 327 327 326 325 324 323 322 321
328 327 328 330 331 333 335 334 335 336 338 339 339 337 336 335 335 337 338 338 337 336 335 334 330 327 328 331 326 322 319 318 317 317 317 316 315 314 313 312 312 312 311 310 309 310 306 304 303 303 302 303 303 303 303 303 304 304 305 306 306 306 306 306 306 307 308 310 312 322 326 327 328 329 328 329 327 325 324 324 324 323 322 321 319
325 328 328 329 330 333 332 330 334 335 336 339 339 338 337 336 335 335 336 337 337 336 336 335 333 330 331 330 325 323 319 318 317 317 316 315 314 313 311 311 310 309 309 309 309 307 305 304 303 302 303 302 302 302 302 302 302 303 303 304 305 305 305 305 304 304 305 307 310 316 324 326 326 327 327 326 324 323 324 323 323 322 321 320 319
322 326 327 328 328 331 332 329 332 334 335 336 337 337 337 335 334 333 334 334 336 335 335 335 335 334 333 331 326 324 320 318 317 316 315 314 313 312 311 309 308 308 307 309 307 305 305 304 304 303 302 302 301 300 300 300 300 301 301 302 303 303 303 303 303 302 303 303 305 310 319 324 325 325 326 325 324 325 325 324 324 322 321 319 318
322 324 326 327 328 329 332 331 329 333 334 336 335 335 336 335 334 334 334 331 335 335 335 335 334 335 334 332 329 326 323 320 318 316 316 314 314 312 310 308 307 307 307 308 306 305 304 303 302 301 300 300 299 298 298 298 298 299 299 299 300 300 301 301 301 301 300 300 301 305 313 319 322 322 322 323 324 325 325 323 322 322 320 319 317
325 324 326 326 327 329 330 331 330 330 332 335 334 334 335 334 334 334 334 332 334 335 334 335 335 335 334 332 332 328 325 323 319 317 316 315 314 312 310 308 306 306 309 306 306 305 304 303 301 300 299 299 298 297 296 296 296 296 296 296 296 297 298 298 299 298 297 298 298 300 308 312 319 320 321 321 323 323 323 322 321 320 320 318 316
325 323 326 327 326 328 329 330 330 328 330 331 331 334 334 333 333 335 334 333 333 333 333 334 335 335 334 333 332 330 326 325 322 318 317 317 315 311 310 309 307 307 309 306 306 306 305 302 300 299 299 298 296 296 296 295 295 295 294 293 292 293 294 295 296 296 296 295 295 297 299 306 312 318 318 317 319 319 320 321 321 321 319 317 316
323 324 325 325 326 328 328 329 329 328 328 329 327 331 331 333 333 334 334 334 332 333 332 332 331 334 333 333 332 332 328 326 325 320 319 318 315 312 311 310 309 311 308 307 306 304 302 301 301 299 298 297 296 296 296 295 294 293 293 292 292 291 291 292 292 292 292 292 292 293 294 297 304 309 315 315 316 317 317 317 318 317 318 317 316
324 325 324 322 325 327 326 327 328 327 328 328 327 327 327 331 332 333 333 333 333 332 332 332 332 333 334 334 332 333 330 327 327 324 321 321 315 312 312 312 313 310 308 307 304 302 301 300 299 298 297 297 296 295 296 294 293 292 292 291 291 290 290 290 290 290 290 289 289 290 291 293 294 301 306 312 313 313 315 315 315 315 316 315 315
322 323 323 322 324 326 325 326 327 327 327 328 326 325 325 325 328 330 331 332 333 332 331 331 330 330 332 333 333 332 331 331 328 328 326 321 316 315 315 315 312 310 308 305 302 301 300 299 298 297 298 295 294 294 293 292 292 292 292 291 290 289 289 289 289 289 288 288 287 287 288 289 291 293 295 303 309 311 311 312 312 312 313 312 313
320 322 323 323 322 323 324 325 324 326 325 326 324 324 323 323 321 324 330 330 330 330 330 330 330 331 332 333 333 332 331 331 330 329 327 322 318 317 317 315 312 310 307 305 302 301 300 298 297 296 296 295 294 294 293 292 292 291 291 291 289 288 288 288 288 288 288 287 287 286 286 287 288 289 291 293 299 306 310 310 310 311 311 312 311
321 322 323 322 321 322 322 323 321 322 323 323 323 322 321 321 321 318 325 328 327 327 327 328 329 329 331 333 334 332 331 332 330 329 326 323 320 319 318 314 311 309 307 305 303 301 299 298 297 296 294 294 293 293 293 291 291 291 290 290 289 288 287 287 288 287 287 287 287 287 287 287 287 288 290 288 291 298 306 308 309 309 309 310 310
322 321 322 321 321 320 320 321 320 320 320 320 318 316 317 319 319 319 319 323 326 325 325 326 326 327 329 332 333 331 332 331 330 328 326 323 321 319 317 313 311 309 306 305 303 301 299 298 297 296 295 293 293 292 292 291 291 290 289 289 288 288 287 287 287 287 288 286 286 286 286 286 288 289 285 285 286 288 296 302 305 306 306 307 308
322 321 322 322 321 319 320 320 320 318 318 318 317 316 315 316 314 313 314 317 321 323 323 323 324 325 326 328 328 329 330 331 330 329 327 324 321 319 316 312 311 309 306 304 303 301 299 298 296 296 295 294 292 291 290 290 291 290 288 288 287 286 286 287 288 288 286 285 285 285 285 285 285 285 285 284 284 285 285 291 297 301 304 304 306
321 320 320 321 319 318 317 315 316 315 315 315 314 313 312 311 310 312 312 311 310 312 317 320 321 321 323 325 325 325 326 330 330 329 327 322 320 318 315 312 310 308 306 304 303 302 299 297 296 295 295 294 292 292 291 291 290 289 288 287 287 287 287 287 286 285 286 286 287 287 286 285 285 284 284 284 283 283 284 284 285 287 295 302 303
319 320 318 318 317 315 315 314 314 314 313 313 312 311 311 312 311 308 309 309 308 308 311 315 316 318 318 319 323 324 324 325 328 328 327 321 319 316 314 311 309 307 305 303 302 301 298 297 295 294 293 293 293 292 291 290 289 288 288 287 287 287 286 286 285 285 285 285 285 285 284 284 284 284 283 283 283 283 283 283 284 283 286 294 299
315 316 317 317 316 315 313 313 313 313 312 312 311 312 311 308 307 311 312 310 311 308 309 308 313 312 313 314 316 318 321 323 324 326 323 319 319 316 313 310 309 307 306 304 302 301 299 298 295 294 292 291 291 291 290 289 287 286 287 286 286 286 288 286 285 284 284 284 284 284 283 284 283 283 283 283 283 282 282 282 282 282 283 282 287
312 314 315 316 316 313 313 314 311 312 313 313 312 312 312 313 312 311 307 309 309 309 308 304 309 309 309 311 313 313 316 319 321 324 322 320 317 315 312 310 309 308 306 304 303 300 299 297 295 293 293 291 289 290 290 289 286 284 282 282 284 284 286 286 286 285 285 285 284 284 284 283 283 283 283 282 282 282 282 282 282 282 282 282 283
311 312 313 312 312 311 312 312 311 312 311 311 311 311 308 307 309 305 310 304 305 306 307 304 305 308 308 309 311 313 315 316 318 321 321 320 317 315 312 311 309 307 305 304 302 299 297 295 294 293 291 292 290 291 289 289 285 285 285 282 279 279 284 282 284 285 285 284 284 284 284 283 283 282 282 282 281 282 282 281 281 281 281 282 283
308 308 310 310 311 310 310 310 310 310 309 309 309 307 308 305 301 304 306 305 302 301 303 305 306 308 309 309 309 313 315 315 314 317 320 320 318 315 313 311 309 308 306 303 301 298 296 295 294 293 292 289 289 288 290 290 287 285 282 283 279 279 276 277 280 283 283 283 284 284 284 283 283 283 282 282 282 282 282 281 281 281 281 281 282
307 308 309 310 312 310 309 309 308 308 307 307 308 307 306 303 300 301 300 300 300 301 301 302 306 308 308 307 309 310 312 312 312 314 315 317 317 316 314 312 310 308 307 304 301 299 296 295 295 293 292 290 288 288 289 292 288 290 286 281 278 279 277 278 280 280 282 282 283 283 284 283 283 283 282 282 282 282 282 281 280 280 280 280 281
306 307 308 309 310 308 308 308 307 307 307 306 307 307 307 305 302 302 301 299 299 300 303 305 304 306 307 307 305 308 310 311 310 312 313 314 315 315 314 312 310 309 307 305 302 299 297 295 295 294 292 292 290 289 289 293 290 289 290 288 285 283 278 279 279 276 281 281 282 283 283 282 282 283 282 282 282 282 282 281 280 280 280 280 280
304 304 305 307 307 307 307 307 307 306 306 306 307 306 305 304 304 303 302 303 302 300 301 304 304 304 305 305 304 304 307 308 308 310 311 312 314 313 313 312 310 309 306 305 302 299 297 296 295 295 294 294 293 290 290 290 289 288 291 293 291 285 284 281 276 277 277 280 281 281 282 282 283 282 282 282 282 282 281 281 279 279 279 279 279
303 304 305 305 306 306 306 306 306 306 306 306 305 306 305 303 303 302 301 301 301 300 301 302 304 303 304 303 302 302 303 306 307 308 310 310 311 312 312 311 310 309 305 304 302 300 298 297 297 297 296 295 293 291 290 290 287 287 290 290 286 285 285 283 283 280 278 277 278 280 281 282 282 282 282 282 282 281 280 279 279 279 279 279 279
302 304 305 305 306 306 306 305 305 305 305 305 304 303 304 304 304 303 302 301 301 300 300 300 301 302 302 300 301 300 300 302 304 306 307 309 309 311 311 311 310 308 304 304 302 300 298 297 297 297 297 295 294 294 292 291 289 289 291 286 284 284 284 282 281 279 278 277 277 279 279 280 281 281 281 281 281 280 280 279 280 279 281 280 278
303 304 304 304 304 305 305 304 304 304 304 304 304 303 303 303 303 302 303 301 301 300 300 299 299 301 301 299 299 298 298 298 300 302 304 306 308 309 310 310 309 308 304 305 302 300 299 298 297 297 297 296 294 294 293 293 291 291 292 287 284 283 282 280 280 278 279 278 278 278 279 279 279 279 280 280 280 280 280 280 279 278 278 277 278
301 303 303 304 304 304 304 304 303 304 303 303 303 302 302 303 303 303 303 302 301 301 300 299 299 300 301 298 298 297 297 298 298 299 302 304 306 306 309 309 309 306 304 305 302 300 299 298 298 298 297 296 294 295 294 294 292 291 292 287 285 284 283 280 280 280 279 277 277 278 279 280 279 278 279 280 281 280 280 279 278 278 278 277 277
Wind_Speed
6 7 4 7 9 10 11 10 10 10 12 12 13 13 13 13 13 14 14 14 14 15 16 16 16 16 15 15 15 15 15 15 15 14 14 15 15 15 15 16 17 18 20 21 20 20 21 20 21 20 21 21 21 21 21 20 20 19 19 18 20 23 22 22 21 20 20 22 23 23 23 21 21 22 22 23 24 22 18 18 16 14 11 14 25
9 6 4 5 10 11 11 10 11 11 11 12 12 13 12 12 13 13 13 13 14 16 16 16 15 14 14 15 15 15 16 16 16 15 15 15 15 14 15 16 17 19 20 22 21 21 21 20 21 22 21 21 22 21 18 17 17 18 19 20 21 22 21 21 21 20 19 18 20 22 22 23 22 23 22 22 23 23 18 20 18 12 11 22 25
8 7 4 6 10 11 11 12 11 11 11 12 12 11 12 12 12 12 12 14 15 15 15 14 14 15 15 15 15 15 17 17 16 16 16 16 14 15 19 20 20 20 23 22 20 20 20 21 21 21 22 21 19 18 18 18 17 17 18 20 21 21 22 21 21 19 18 17 16 17 20 23 24 22 23 23 22 23 21 22 23 18 15 25 23
9 5 5 7 9 9 11 11 11 9 9 8 11 12 11 11 12 12 13 13 14 15 15 14 14 15 15 15 15 15 16 17 17 16 16 15 16 16 17 17 19 21 21 21 21 21 21 21 21 22 22 19 18 18 17 17 16 17 18 20 21 22 22 21 20 18 16 15 14 14 7 9 15 23 23 23 24 23 22 22 23 24 25 24 25
9 6 5 5 6 8 10 10 10 10 9 9 11 12 11 12 12 13 13 13 14 14 15 14 15 15 15 15 15 15 16 16 16 17 16 15 16 19 18 19 20 21 21 21 21 21 21 21 21 20 18 17 18 17 17 17 17 20 22 20 22 22 21 20 18 17 14 14 12 8 7 8 10 21 22 24 24 21 21 23 23 23 23 25 25
8 7 6 5 5 6 9 10 11 11 10 9 11 11 11 12 12 13 13 13 14 15 14 14 15 15 15 15 15 15 15 16 17 16 15 16 18 18 19 18 19 21 22 22 21 20 19 20 19 18 18 18 18 18 18 18 17 19 23 22 21 20 19 17 15 14 13 12 9 8 8 9 8 12 24 24 24 21 22 24 23 22 22 24 24
9 6 6 6 5 6 9 10 12 11 11 10 11 11 11 11 12 12 13 13 14 14 14 14 14 14 15 15 15 15 15 16 16 15 15 17 16 18 19 19 20 21 20 20 21 20 19 19 18 18 18 18 18 18 18 18 17 18 21 21 20 18 17 15 14 12 11 7 6 7 7 8 8 8 23 22 23 24 23 23 22 21 22 22 23
6 5 6 5 5 7 8 10 11 12 12 11 11 12 10 12 12 12 13 13 14 13 14 14 14 14 14 15 15 15 15 15 15 16 17 16 16 18 18 19 20 20 20 20 20 19 18 17 18 18 18 18 18 18 18 20 21 20 19 19 19 18 16 15 14 13 11 7 5 6 6 7 8 9 21 22 24 22 23 23 23 22 22 22 17
7 6 6 6 6 8 8 10 11 12 12 11 12 12 12 12 11 12 12 13 14 14 14 14 14 14 14 14 15 15 15 14 14 16 16 17 17 17 17 17 19 19 19 20 19 19 18 18 19 18 18 18 18 18 19 20 21 21 21 21 21 20 20 18 16 14 9 8 8 7 6 5 6 9 19 22 22 22 21 17 18 23 24 21 22
8 7 7 5 5 8 10 10 12 12 13 12 12 12 13 12 11 12 13 13 13 14 14 14 14 14 14 14 14 14 14 14 14 16 17 16 17 18 18 18 18 19 20 20 20 19 19 18 18 18 18 18 19 19 19 19 21 21 21 22 22 21 20 17 15 13 9 9 9 9 10 12 8 10 19 23 26 25 22 20 18 18 17 23 27
8 8 7 6 6 9 11 11 10 11 12 12 12 12 12 13 12 12 12 13 13 14 14 14 14 14 14 14 14 14 14 13 13 15 15 17 17 17 18 18 18 18 20 20 19 19 19 19 19 18 18 18 18 18 19 19 21 22 23 22 21 21 19 16 13 8 9 10 9 8 11 14 7 9 21 25 26 25 22 23 23 23 25 27 27
9 8 7 7 9 10 11 11 10 11 11 11 12 12 12 12 13 12 11 12 13 13 14 14 13 14 14 14 14 14 14 13 12 14 16 16 16 17 16 17 18 19 20 19 19 19 20 19 19 18 18 18 18 19 20 19 19 22 23 22 21 19 17 16 10 9 9 9 8 8 7 9 9 16 25 24 25 24 24 25 26 26 26 27 27
9 8 8 7 6 10 11 11 10 10 11 12 12 12 12 13 13 13 12 12 14 13 13 13 13 13 13 13 14 14 14 14 13 13 16 15 15 15 16 16 17 18 19 19 19 18 19 19 18 17 18 18 19 20 19 20 20 20 20 20 19 18 16 14 8 8 8 8 7 8 7 7 10 22 24 25 25 24 25 25 26 26 26 26 27
9 8 7 7 6 9 10 11 9 10 10 10 11 9 11 12 13 13 12 12 13 13 13 13 13 13 13 13 13 14 14 14 13 13 13 14 14 15 15 16 16 16 17 17 17 17 18 19 17 17 17 18 19 19 19 19 21 21 19 18 15 14 13 10 9 7 7 7 8 8 7 7 11 23 24 24 25 25 25 26 26 26 26 27 28
10 9 8 7 6 6 10 10 8 9 9 10 9 10 11 11 13 13 12 12 13 13 13 13 13 13 13 13 13 14 14 14 14 14 14 13 14 14 14 15 15 16 17 17 17 17 17 17 16 17 17 18 18 19 19 19 19 20 18 16 15 13 12 7 6 7 7 6 5 6 7 8 20 24 25 25 24 25 25 25 26 27 27 27 28
11 10 9 7 6 7 6 7 9 9 9 9 9 9 9 9 11 12 12 12 13 13 13 13 13 13 13 13 13 13 14 14 14 14 14 15 15 15 15 16 16 16 17 16 16 17 17 17 16 16 16 18 18 19 20 21 21 21 20 18 16 14 13 8 6 6 6 5 5 5 8 10 22 24 23 25 24 24 24 26 27 26 27 28 29
10 10 9 8 7 7 6 6 7 9 9 9 9 8 9 10 12 11 11 11 12 13 13 14 13 13 13 14 14 13 13 13 14 14 15 15 15 15 14 15 15 16 16 16 17 17 17 16 16 16 17 18 19 19 20 21 21 20 19 18 16 15 14 11 7 6 6 5 4 4 6 8 19 23 23 23 24 24 26 27 28 27 28 28 28
11 10 9 8 7 7 7 7 6 7 6 7 8 9 10 12 12 11 10 10 11 12 12 13 12 12 11 12 12 12 14 14 13 14 14 15 14 13 14 14 15 16 16 16 16 17 17 16 16 16 17 18 19 19 20 20 20 19 18 17 16 14 14 11 6 6 6 6 5 4 6 15 22 23 24 25 26 26 26 27 29 29 29 28 28
8 10 9 8 7 7 7 7 6 5 6 5 4 6 11 12 12 11 11 11 10 11 11 11 12 11 11 10 10 10 11 11 11 12 12 12 12 12 14 14 15 16 16 16 16 17 16 16 16 17 17 18 19 19 20 20 19 19 18 16 15 15 14 9 7 7 6 6 6 6 5 17 21 23 25 26 27 27 27 29 30 29 28 28 27
6 9 9 8 7 7 6 6 6 6 5 5 5 5 8 12 12 12 12 11 10 11 12 11 11 12 12 12 12 10 9 9 11 9 12 13 12 9 12 12 15 16 16 16 16 16 16 16 16 17 18 18 18 18 19 19 19 18 17 16 15 14 9 6 7 7 7 6 6 7 14 20 23 24 25 26 26 26 28 28 30 29 28 27 27
4 6 8 7 8 8 8 7 6 7 6 6 5 6 6 10 10 12 12 12 11 12 12 12 11 11 11 11 10 8 6 6 6 6 10 9 11 12 12 13 15 16 16 16 16 16 17 17 17 17 17 16 14 16 18 18 19 18 16 15 15 9 7 7 7 7 7 6 6 7 16 19 22 25 26 25 27 26 27 29 29 29 29 27 27
5 5 5 6 7 8 9 8 7 8 7 6 5 5 6 7 6 7 8 10 11 11 10 8 8 7 11 9 6 6 6 6 6 6 5 8 9 11 12 13 16 15 16 17 16 16 17 17 16 16 15 13 11 8 10 14 16 15 15 15 10 7 8 8 7 7 7 6 6 11 19 21 23 24 27 27 27 28 27 29 29 29 28 27 28
6 5 5 7 5 6 8 9 8 8 8 7 6 6 7 6 6 7 7 9 9 9 7 8 7 7 6 6 6 6 6 6 6 7 6 8 9 11 11 11 13 13 15 16 16 17 16 16 14 14 14 12 8 7 7 7 8 13 13 10 8 8 8 8 7 7 7 6 5 13 17 21 24 26 26 27 27 27 29 29 29 29 27 26 26
7 7 7 5 6 6 6 7 8 9 9 7 6 6 6 6 6 6 5 6 8 7 7 7 7 7 7 7 6 6 6 6 9 13 9 6 7 10 12 12 11 11 14 10 13 14 13 14 14 12 9 6 6 7 7 6 7 6 7 7 8 8 9 8 7 7 7 8 6 15 18 21 22 23 26 27 27 26 29 29 28 27 26 26 25
7 5 5 7 6 7 6 6 5 7 8 7 7 7 6 6 6 6 7 6 6 7 7 7 7 8 7 7 7 6 6 6 6 6 7 6 5 5 6 6 6 5 7 6 6 6 7 7 7 8 6 6 7 6 6 7 6 7 7 7 8 8 8 7 7 7 7 7 7 14 17 21 24 24 26 26 27 27 29 27 27 27 26 26 25
5 7 9 8 8 7 7 6 6 6 7 7 8 7 8 6 6 7 7 6 7 7 7 7 7 8 6 6 8 8 7 6 6 6 6 7 6 5 6 6 6 6 5 6 5 5 6 6 7 7 7 6 7 6 6 7 6 6 6 7 8 8 8 7 7 7 7 7 11 10 17 22 24 24 24 25 26 26 25 26 26 27 26 25 24
9 10 9 8 8 8 7 6 7 7 7 7 7 7 7 7 6 7 7 7 7 7 7 7 7 8 6 8 9 8 8 7 7 6 6 6 6 6 6 6 6 7 6 6 5 6 6 6 7 7 6 7 7 7 7 7 6 7 7 8 8 8 8 7 7 7 7 7 11 19 17 18 22 23 22 24 22 22 23 24 25 25 26 25 25
7 8 9 9 9 11 10 6 7 7 7 7 7 8 6 7 7 7 7 7 8 8 7 7 7 8 7 7 9 9 9 8 7 7 7 6 6 6 5 6 6 6 6 6 7 6 6 6 7 7 8 7 8 7 7 7 7 6 7 7 7 8 8 8 8 8 7 7 10 16 14 18 20 22 22 23 22 23 22 23 25 25 24 23 23
8 9 9 9 10 10 11 9 7 9 7 8 8 7 7 7 7 7 8 7 7 8 8 8 8 7 7 7 9 8 8 8 8 7 7 7 6 7 6 6 6 7 5 6 7 7 7 7 6 7 7 7 6 7 7 7 7 6 7 7 7 8 8 8 8 8 7 7 8 13 18 14 17 18 19 21 22 22 22 23 24 23 23 23 22
12 9 10 10 9 9 12 12 9 9 8 8 7 8 8 8 8 9 8 8 8 7 8 8 7 8 7 7 9 9 9 9 8 7 8 8 7 7 7 6 7 6 5 7 6 7 7 7 7 7 8 7 7 6 7 7 8 6 7 8 7 7 7 8 8 7 7 7 7 10 19 19 14 19 21 21 20 20 20 21 22 22 23 22 21
10 10 10 10 9 10 11 11 10 8 7 8 8 8 8 8 8 8 8 9 8 7 7 8 8 8 7 8 8 9 9 8 9 9 8 8 8 8 7 7 7 5 5 6 6 7 7 7 7 8 8 8 6 6 7 8 7 7 6 8 6 6 7 7 8 7 8 7 7 7 12 19 19 13 17 17 18 18 19 20 20 22 21 20 20
12 13 10 8 10 12 12 11 10 9 9 8 7 9 9 9 9 8 8 9 8 7 7 6 8 8 7 8 8 8 9 9 10 10 9 8 8 8 8 8 7 6 6 6 8 7 8 7 8 8 8 8 8 7 6 8 8 6 6 7 6 6 6 6 8 8 8 7 7 8 8 10 17 20 15 16 17 18 17 17 17 18 18 20 20
10 11 10 10 13 12 11 11 10 8 9 9 8 8 8 8 9 8 8 8 8 8 8 7 7 7 8 8 8 8 8 9 8 11 10 9 9 9 9 8 7 7 7 8 9 9 9 8 8 7 7 8 9 8 6 7 8 6 6 6 6 7 5 6 7 8 8 7 7 7 7 8 9 15 19 16 15 16 17 17 18 17 17 18 18
9 7 9 11 10 8 8 9 10 11 10 8 7 7 7 8 8 7 7 8 8 8 8 6 7 6 8 8 9 9 9 9 9 9 9 9 9 10 10 8 8 9 10 10 9 9 9 9 9 9 8 8 8 7 8 8 6 6 6 6 6 6 6 7 7 7 7 8 7 8 7 7 8 8 9 17 16 14 15 16 16 17 17 16 17
7 7 13 12 10 10 9 8 10 10 10 10 9 7 6 7 7 7 7 7 7 7 8 7 7 7 7 8 9 10 11 10 10 9 9 9 10 9 9 8 9 9 9 8 10 8 9 10 10 10 8 8 8 7 8 8 8 8 6 6 6 6 6 6 6 7 7 6 7 7 7 7 7 7 8 8 12 15 14 14 14 15 16 16 16
11 12 10 9 11 10 10 10 9 11 11 11 9 8 7 7 7 6 7 7 7 6 6 7 8 7 7 7 9 10 11 11 10 8 8 9 9 9 8 9 10 9 9 9 10 10 9 9 9 11 11 8 9 8 7 8 8 8 6 6 6 6 6 6 7 6 6 7 7 6 7 7 7 7 7 7 7 12 20 16 14 14 15 15 15
11 10 11 10 11 11 12 12 12 12 11 10 8 6 6 6 6 6 6 7 7 7 6 6 7 7 7 7 8 9 10 10 9 9 9 9 8 8 8 9 8 8 9 9 9 9 10 10 9 7 10 11 10 11 8 8 8 7 7 7 6 6 6 5 6 6 6 7 6 7 7 7 7 8 7 7 7 7 13 17 17 18 15 16 15
9 11 11 13 13 11 11 12 11 10 10 10 8 7 6 6 5 4 4 7 7 7 6 6 7 7 6 7 6 7 10 11 10 10 8 9 10 10 9 10 9 9 8 8 7 8 8 10 10 8 9 11 11 11 10 8 7 7 7 7 7 6 5 5 5 5 6 7 7 7 6 6 7 6 7 6 6 6 6 11 16 16 16 15 15
9 11 10 9 9 9 9 9 10 9 8 8 7 6 5 4 3 3 3 4 4 4 6 6 6 6 6 7 6 5 4 8 11 11 9 8 7 8 11 12 10 9 9 9 9 7 7 8 12 11 7 7 10 10 10 9 9 8 8 7 6 6 6 5 6 6 6 5 6 6 6 6 6 6 6 6 5 6 7 7 7 7 9 16 14
8 9 10 9 10 9 8 8 9 9 7 7 6 6 6 6 6 3 3 3 3 4 3 6 6 6 6 6 7 5 4 4 7 9 11 11 9 8 8 10 11 11 11 11 11 11 12 12 11 14 12 9 7 9 10 11 10 10 9 7 5 6 7 6 6 6 5 5 6 6 6 5 6 6 6 5 6 6 7 6 6 6 6 9 14
7 8 10 10 12 13 11 12 9 9 9 9 8 8 8 5 3 7 7 6 7 4 4 4 5 4 4 5 5 6 5 4 5 7 6 9 11 11 11 9 9 11 12 13 12 12 11 11 11 10 15 13 9 9 9 11 14 10 7 7 7 5 6 6 6 6 5 5 6 6 5 6 6 6 5 5 6 6 5 6 5 5 6 5 6
8 9 12 14 12 10 13 12 8 9 10 10 9 8 8 9 9 8 6 6 7 7 6 3 5 3 4 4 4 4 4 4 5 6 9 9 8 9 11 12 11 11 11 11 12 12 12 11 10 9 5 13 12 12 11 12 6 11 11 6 5 5 4 6 6 5 5 5 5 5 5 6 6 5 5 6 6 5 5 5 4 5 4 4 4
10 10 9 6 6 8 10 9 9 10 9 8 8 9 5 4 5 4 6 3 1 3 4 3 3 4 3 4 4 5 5 4 5 7 8 9 10 11 10 11 12 11 10 10 11 13 14 15 15 15 11 4 7 10 13 7 9 7 8 9 5 4 2 3 3 4 4 4 4 4 5 5 6 5 5 6 6 5 4 4 4 3 3 4 5
7 6 7 9 8 7 7 7 8 7 7 7 7 4 5 4 3 3 4 4 4 3 3 4 4 4 5 4 4 5 5 5 5 7 9 11 12 13 12 12 12 12 13 14 13 13 13 12 12 13 16 13 10 11 10 4 10 15 7 2 4 4 5 3 3 1 2 4 4 4 4 5 5 5 5 6 5 5 4 3 3 3 3 3 4
9 10 9 9 9 10 8 7 6 6 5 6 6 6 6 4 4 5 4 5 4 3 3 4 5 5 4 5 6 4 5 5 5 6 7 9 10 11 13 13 13 13 12 14 15 17 17 16 16 15 16 16 14 10 11 4 10 4 9 8 3 1 5 5 6 2 2 3 1 4 4 4 5 5 5 5 5 5 4 3 3 3 4 4 4
8 8 7 8 6 6 6 6 6 6 7 7 8 8 8 8 7 7 7 5 6 6 10 10 7 8 8 3 3 5 5 6 5 5 7 7 9 9 10 11 11 11 12 13 12 12 13 14 16 16 15 12 16 13 11 5 11 8 5 2 4 8 10 9 7 4 0 0 3 2 4 4 4 5 4 5 5 5 3 3 3 3 4 4 4
7 5 5 6 6 6 7 8 8 7 7 8 9 8 7 7 9 8 6 8 8 5 2 3 5 4 4 5 5 4 5 6 6 5 6 7 7 8 9 9 10 10 8 8 10 13 14 16 13 13 15 12 11 14 15 11 8 8 6 2 0 3 14 15 5 6 4 1 1 3 2 4 4 4 4 4 5 5 3 3 3 3 4 4 4
6 5 6 5 7 8 8 8 7 8 7 8 9 9 9 7 7 6 6 6 7 6 5 4 4 4 5 5 5 5 5 5 6 6 6 7 7 7 9 10 10 10 9 10 13 12 9 9 11 10 9 11 14 15 15 12 16 11 8 3 4 7 12 4 13 13 9 11 5 1 1 4 4 4 5 5 5 5 4 3 3 3 4 3 4
6 7 7 7 7 7 8 7 8 8 7 8 9 7 8 9 9 8 7 6 6 6 6 5 5 5 5 4 5 5 5 4 5 6 6 7 7 8 9 9 10 11 10 9 9 10 13 12 11 11 12 11 12 11 12 14 12 10 10 2 7 7 4 3 6 6 6 6 2 7 6 1 2 3 4 4 4 4 4 4 3 3 3 3 3
7 6 6 5 6 6 8 8 8 8 8 8 8 8 8 8 8 8 9 7 6 5 6 6 6 6 6 6 5 5 5 5 5 4 5 6 7 8 9 11 12 11 11 11 11 12 12 13 16 16 15 12 10 9 12 12 12 8 8 7 7 6 5 3 2 5 4 3 10 12 9 11 10 5 3 5 5 4 4 4 3 3 3 3 3
5 6 6 7 6 8 8 9 8 8 8 9 9 9 8 8 9 9 9 9 7 7 7 7 6 7 7 7 7 6 6 6 5 5 6 6 7 7 8 9 10 10 11 11 12 13 14 14 13 13 12 14 13 13 11 8 9 9 9 9 10 14 13 9 11 6 6 5 5 5 6 6 6 7 5 5 5 4 5 4 4 4 4 3 3
Wind_Direction
145 138 144 128 123 120 116 107 105 102 105 101 98 96 94 93 91 87 84 84 83 80 77 76 76 76 74 72 69 70 70 71 74 77 81 82 80 79 80 80 80 77 73 69 67 68 69 74 76 74 77 78 78 78 78 76 74 73 73 73 72 72 70 67 65 62 60 63 67 68 68 69 69 68 65 64 60 57 56 60 62 65 68 61 65
143 141 140 134 126 123 115 111 110 107 98 102 100 99 96 93 92 90 86 85 83 79 78 79 79 78 77 74 73 73 72 72 75 79 82 83 84 86 83 77 78 80 78 75 72 72 74 73 77 80 79 82 81 77 67 62 62 67 72 76 80 78 73 69 66 62 60 61 66 69 68 70 69 68 68 69 65 59 56 64 65 64 63 62 62
128 130 133 121 125 124 119 117 115 113 105 101 103 100 101 101 98 95 90 86 81 79 79 79 80 78 76 75 76 74 76 77 78 81 82 82 80 76 77 80 79 82 80 79 75 74 77 77 78 78 82 81 73 62 58 56 54 58 71 80 81 81 77 74 70 66 63 62 66 68 69 71 71 71 72 71 68 61 57 61 65 65 66 64 62
126 125 120 113 116 119 122 118 117 108 101 99 108 104 102 105 105 101 94 88 85 82 83 81 79 78 75 75 75 74 77 79 81 82 83 83 83 81 83 87 88 82 82 80 78 76 76 79 81 85 85 73 64 61 57 56 56 65 81 84 82 80 81 77 74 68 63 62 66 69 64 70 73 72 72 72 71 68 65 64 61 64 64 63 64
126 128 121 117 121 125 125 124 121 117 110 104 112 114 114 110 107 106 99 93 89 88 86 83 82 81 79 79 77 76 76 79 82 86 85 87 85 85 82 76 78 85 83 81 79 77 78 81 85 83 71 65 61 58 55 54 55 68 81 83 81 80 82 82 79 72 64 60 55 56 57 61 72 72 74 73 73 72 72 71 69 67 63 64 65
133 133 127 122 120 122 126 129 125 121 116 113 116 113 116 111 108 106 100 96 93 89 87 85 84 83 84 82 81 78 76 79 82 84 87 85 80 82 87 90 88 84 84 83 80 77 78 83 83 77 69 62 57 54 51 52 55 69 79 81 82 82 82 83 82 77 72 65 56 62 59 61 63 73 76 76 75 73 73 72 71 70 68 66 65
135 135 127 127 127 131 136 134 130 126 122 123 118 115 116 113 110 108 104 100 94 90 87 86 84 84 84 84 83 80 78 80 81 82 86 86 88 90 85 85 83 84 85 83 79 78 82 84 82 76 65 59 55 52 51 53 58 74 80 82 83 80 77 76 76 75 71 62 58 59 68 68 68 69 74 75 75 74 73 73 73 73 71 71 72
130 130 130 126 128 135 140 132 130 129 131 129 124 122 118 112 110 109 105 101 97 94 91 88 85 83 81 82 82 81 80 84 88 87 81 88 90 87 89 86 86 85 84 83 80 80 82 82 82 71 63 57 52 50 52 61 68 74 74 72 72 70 64 62 63 60 53 53 48 50 58 67 74 79 77 76 75 75 75 75 72 69 67 63 56
131 125 124 125 128 137 133 130 129 129 128 127 126 124 124 115 115 116 109 104 101 99 96 92 90 87 85 85 84 84 82 82 82 88 87 75 74 85 85 86 86 86 86 84 82 83 83 84 83 69 63 56 50 48 49 56 70 74 73 70 67 62 59 55 54 53 52 50 51 53 52 57 71 80 80 80 78 74 68 63 65 70 69 69 70
131 121 125 124 129 134 131 130 130 129 130 128 128 129 125 126 123 121 114 110 106 102 99 97 96 95 94 93 91 91 89 87 90 90 88 88 90 87 86 84 86 88 88 85 84 84 85 87 83 69 61 54 49 48 49 57 71 72 72 71 68 64 60 56 54 53 54 50 48 54 61 65 61 79 87 85 79 76 72 72 76 75 74 72 72
128 125 125 125 132 133 132 127 131 133 130 131 133 131 130 129 128 121 117 116 111 107 104 102 100 99 99 98 96 94 92 89 89 98 96 91 90 89 87 88 85 83 83 84 85 86 89 89 85 68 60 55 51 51 53 58 73 77 75 72 70 68 64 59 57 58 56 54 53 51 63 69 69 80 86 85 84 80 76 75 75 72 72 70 67
124 126 130 133 136 135 132 131 133 132 134 134 134 134 132 127 126 125 124 119 113 107 106 105 103 102 102 101 99 97 94 91 89 92 89 88 92 92 91 90 87 83 84 84 85 88 92 92 85 67 62 58 54 53 55 62 72 79 77 74 73 71 69 65 60 59 58 57 55 57 59 67 66 88 86 86 84 81 78 77 72 69 67 67 67
125 130 135 138 134 132 134 133 134 137 135 134 135 136 134 133 130 131 130 125 116 111 109 108 107 106 104 103 103 101 100 96 92 93 105 103 98 94 92 90 87 87 86 86 86 90 92 91 77 67 63 59 55 55 57 65 70 74 75 76 75 73 71 67 65 65 64 61 60 57 59 72 84 84 84 83 82 78 75 73 70 68 66 67 65
131 135 137 136 134 133 128 130 137 136 136 137 136 134 134 134 133 132 131 125 119 115 114 112 111 110 108 106 105 104 105 103 96 92 93 99 101 100 98 93 91 92 95 92 91 93 93 94 76 71 65 58 55 52 52 60 70 70 69 69 67 67 65 67 65 65 65 65 68 69 67 75 84 82 81 80 79 77 74 73 70 68 66 64 62
138 138 137 132 135 130 125 128 133 134 138 136 135 136 136 135 133 134 133 129 126 122 118 114 113 113 112 110 107 106 105 105 104 100 98 98 102 103 101 101 98 96 95 95 93 94 95 92 79 73 66 60 53 52 53 54 57 60 60 59 59 60 61 60 56 62 63 61 54 62 76 80 85 83 83 81 80 79 76 73 70 68 66 66 63
139 138 136 138 138 129 126 124 123 127 130 133 137 141 141 136 131 135 136 135 131 127 122 119 117 117 115 113 111 109 108 106 107 106 105 104 102 100 100 101 102 99 99 97 96 97 99 93 83 76 68 61 58 57 59 61 62 61 61 59 55 54 55 53 44 38 35 36 54 65 77 82 84 84 84 82 80 79 76 73 71 70 65 61 62
135 138 138 141 144 134 132 135 133 126 125 133 138 131 131 130 129 138 139 138 137 132 128 125 124 123 122 120 116 113 111 110 110 110 107 107 106 106 106 108 108 106 104 104 102 101 99 89 84 77 67 64 62 63 65 67 66 63 60 56 52 51 52 52 48 41 39 33 29 58 84 83 83 84 83 83 83 83 81 78 74 70 70 67 66
139 143 144 148 149 145 141 137 141 136 133 126 129 133 131 129 134 141 141 141 142 135 132 130 127 122 119 118 119 119 118 115 113 111 111 110 110 113 114 112 109 108 106 103 104 104 100 89 85 78 72 67 68 70 71 72 69 65 61 58 54 50 48 47 51 42 43 47 47 37 74 91 88 87 85 84 83 81 81 80 76 71 69 68 67
137 140 143 149 152 147 146 146 147 145 143 132 120 130 137 135 138 142 142 146 143 135 130 124 122 122 119 114 108 104 108 111 110 108 107 108 109 110 111 111 111 109 109 108 108 108 98 93 87 81 76 73 73 74 75 73 70 68 65 60 56 52 47 44 40 39 39 39 40 50 76 98 95 91 87 86 85 83 81 82 82 75 72 69 68
130 140 149 156 156 154 155 157 157 156 152 144 137 133 142 143 142 142 143 145 139 131 129 127 123 116 110 106 103 98 92 94 97 102 107 106 105 108 110 113 116 116 115 115 112 110 101 97 92 85 78 73 71 73 76 74 72 70 66 61 57 50 43 39 37 37 38 39 44 68 78 86 91 91 90 89 87 85 84 80 77 77 73 70 69
130 144 145 157 161 158 162 160 166 161 155 147 143 135 146 145 144 143 143 141 135 134 129 122 118 116 115 113 108 106 105 97 87 96 99 106 110 112 117 120 120 121 120 118 117 111 105 100 95 88 81 72 64 65 69 72 73 71 67 63 59 51 41 38 35 32 29 37 63 88 92 93 88 89 88 84 83 83 83 82 78 76 73 71 70
152 156 157 150 156 161 164 165 166 166 160 154 153 147 142 150 136 144 143 142 135 132 131 133 129 127 124 122 119 117 112 106 104 97 99 108 108 110 113 119 122 121 122 121 119 113 108 103 97 88 77 70 62 64 65 67 68 70 68 66 61 54 42 38 34 32 26 24 58 87 90 93 93 90 86 85 84 81 79 79 78 76 75 71 68
168 169 184 163 168 161 164 164 170 167 160 159 155 154 155 151 147 148 146 146 145 144 142 139 139 141 139 131 126 119 117 115 114 112 105 102 109 110 110 113 117 118 121 122 119 113 108 103 88 76 72 66 63 63 66 66 65 65 65 63 64 56 51 42 38 33 27 8 67 87 93 88 86 87 86 85 84 83 80 77 76 76 76 75 73
175 178 173 172 167 172 170 160 166 168 162 160 156 159 164 155 158 155 147 145 148 152 150 148 150 151 148 142 131 126 118 115 114 113 108 102 100 101 105 107 109 114 116 114 113 109 92 71 70 65 59 61 63 62 68 66 66 64 67 66 68 61 53 44 38 36 32 14 41 77 88 88 88 86 86 85 83 84 81 78 77 78 74 73 73
176 164 167 183 184 173 171 171 170 167 169 163 161 166 165 158 160 158 157 156 156 157 156 155 158 160 157 150 140 132 125 127 127 121 120 119 112 110 107 104 102 95 95 98 89 80 72 79 70 69 67 68 69 63 69 71 64 67 67 67 70 66 57 45 40 40 31 32 10 81 78 84 83 85 86 86 83 79 79 81 82 80 78 75 73
164 181 192 182 189 178 174 180 179 168 173 167 168 163 163 167 166 165 163 164 164 162 162 162 166 169 167 148 139 133 134 133 134 131 128 131 129 127 123 122 116 116 116 113 103 82 83 87 86 84 85 79 78 75 71 77 78 71 70 69 69 68 62 48 41 40 35 26 14 60 96 92 85 83 86 87 85 84 85 84 82 81 80 78 74
186 196 186 187 186 182 180 179 186 174 172 169 161 162 173 173 170 171 168 170 168 165 170 169 173 177 169 146 145 145 143 145 141 143 141 138 139 141 137 134 132 132 139 122 94 93 92 90 90 87 86 85 80 77 75 73 73 78 72 69 72 74 66 55 47 42 29 27 26 21 75 80 86 86 85 85 83 81 83 85 85 82 79 78 76
179 189 187 185 183 188 185 179 188 179 175 173 164 169 170 170 175 170 178 174 171 174 174 176 175 182 173 155 149 152 151 153 152 151 152 145 148 146 142 137 141 147 145 113 111 103 95 90 96 92 86 82 86 80 78 72 69 73 76 71 73 75 69 64 57 42 36 30 33 17 34 84 85 87 84 84 85 89 90 90 85 82 81 80 79
189 189 185 185 188 184 188 194 183 183 176 174 173 170 172 170 170 175 181 178 181 176 177 175 177 181 178 161 154 154 157 155 158 158 154 155 152 153 150 153 152 159 134 120 120 115 107 101 93 97 94 89 85 83 84 77 75 68 75 75 72 73 75 69 60 51 40 34 35 21 24 49 83 86 85 84 87 89 90 87 86 88 89 83 79
200 182 183 192 187 183 189 198 189 182 178 176 178 174 176 176 177 178 181 178 185 180 173 178 181 175 179 172 165 161 164 162 159 160 159 162 160 157 155 158 163 158 128 130 129 118 117 110 107 104 103 97 89 86 90 86 77 72 73 77 69 70 74 72 66 57 49 43 30 30 27 26 48 82 86 89 89 90 88 90 94 90 84 83 81
190 190 190 190 185 182 191 195 191 183 175 179 179 181 179 181 180 181 177 182 185 180 179 179 178 182 174 174 172 169 167 164 161 164 169 165 165 163 162 160 166 145 136 130 124 116 111 109 113 111 108 106 96 94 95 93 84 75 71 77 72 71 72 72 71 66 59 43 40 35 30 29 27 52 87 88 90 90 89 89 90 90 89 85 82
189 199 192 179 177 188 187 190 188 182 183 187 177 182 183 183 183 179 182 183 180 183 184 181 180 182 172 177 180 177 170 173 166 168 170 170 167 168 165 162 167 135 140 132 117 110 106 101 100 103 108 107 103 95 92 97 90 80 75 75 68 68 66 68 71 66 63 54 43 41 37 29 30 33 40 92 94 89 86 89 87 88 90 86 85
201 190 180 171 180 182 182 187 183 183 188 195 190 185 177 183 183 184 183 180 182 182 185 188 184 178 178 174 179 185 177 176 175 172 173 173 169 166 167 167 154 145 140 130 120 118 115 115 109 110 102 101 102 100 95 88 90 83 77 72 76 69 65 72 71 67 65 59 53 45 44 35 35 31 31 32 79 88 94 91 87 85 87 89 85
190 186 169 181 176 176 176 178 184 185 192 197 194 193 181 177 180 180 179 180 182 182 186 184 182 183 177 179 181 186 184 180 178 173 174 169 171 172 168 160 155 150 144 138 132 134 131 127 125 117 116 113 110 109 105 97 91 87 77 75 72 75 77 74 72 72 71 68 60 57 45 47 40 42 31 29 29 77 85 95 95 92 90 87 85
173 184 188 182 172 176 174 180 183 187 191 199 197 197 189 175 168 168 174 178 181 184 183 182 184 185 182 183 181 184 188 182 182 169 172 168 170 169 163 158 151 150 144 143 136 136 133 134 134 124 119 116 113 112 109 108 103 91 85 83 80 80 74 82 75 73 70 70 64 58 54 49 48 45 40 35 25 30 71 78 90 96 92 87 86
187 188 186 171 178 178 179 179 180 186 193 195 197 190 189 187 180 162 166 177 178 185 183 183 183 182 185 187 189 182 184 184 180 168 163 165 166 165 160 150 152 149 147 143 140 143 142 134 137 137 131 121 117 111 102 104 104 100 94 87 85 79 84 79 80 75 70 70 67 61 57 53 50 51 44 43 36 28 45 60 81 83 85 87 85
189 179 180 180 180 180 180 180 182 185 186 188 183 181 178 186 192 182 160 174 181 187 185 179 173 173 174 181 190 184 182 179 175 169 160 162 162 154 147 145 149 143 143 144 147 147 146 141 140 135 135 132 125 118 113 115 111 102 96 89 80 82 75 82 82 83 75 75 71 68 62 58 58 50 51 46 41 35 39 45 54 59 69 78 78
190 185 182 180 183 180 184 185 184 181 182 183 182 178 174 168 167 166 146 157 183 182 182 177 180 175 169 165 171 182 185 178 174 173 166 164 162 156 148 148 147 143 140 145 146 144 145 142 130 131 136 133 133 134 131 121 109 103 90 86 89 82 79 79 81 76 78 79 75 75 75 72 65 62 57 55 50 50 45 37 38 43 61 77 80
189 186 180 181 173 180 179 183 177 177 178 173 171 165 156 137 107 128 126 119 112 152 169 180 182 173 178 164 155 166 191 183 175 171 163 157 156 156 153 153 149 146 142 138 139 140 139 141 138 134 129 127 136 130 129 123 110 101 93 87 88 88 85 77 75 77 76 82 89 87 81 73 77 69 69 62 59 57 53 44 40 32 44 73 78
192 184 179 174 174 176 179 176 181 172 159 161 156 164 162 167 154 110 148 167 149 134 171 178 173 178 172 163 158 161 167 193 181 176 165 161 155 153 152 154 151 147 149 148 155 158 155 147 148 141 133 123 121 130 132 123 105 95 92 81 70 82 82 84 81 84 84 82 86 84 89 84 79 79 74 74 69 66 63 59 56 50 38 59 70
185 185 183 184 180 181 174 186 183 170 166 168 175 171 175 175 169 189 192 182 175 169 164 176 179 177 168 160 158 158 161 179 196 165 165 165 160 156 154 158 157 157 159 170 161 151 150 151 147 146 141 139 141 147 146 133 118 93 86 82 71 60 79 86 87 84 85 90 85 97 97 92 87 84 85 82 79 77 75 76 74 69 66 49 46
198 184 190 193 186 176 183 185 172 181 183 181 177 179 187 192 183 189 171 172 173 176 184 184 176 170 167 168 162 161 167 181 197 185 160 163 155 155 159 162 164 170 165 158 155 150 148 151 150 133 157 148 151 161 159 139 127 142 137 123 82 65 64 73 80 77 90 90 108 109 107 104 102 101 93 89 84 84 83 83 84 86 83 79 72
184 187 192 184 187 185 193 182 184 184 188 177 168 186 179 169 169 162 168 158 194 168 150 151 144 159 178 175 176 175 179 198 210 197 176 172 165 162 170 168 170 161 149 158 159 162 163 163 166 153 149 162 148 168 174 190 131 129 117 106 155 110 92 47 49 80 93 101 111 115 118 111 113 112 111 98 91 88 86 85 91 94 98 93 87
177 184 182 186 190 193 194 187 188 184 175 178 175 157 147 126 86 118 137 129 172 147 127 134 155 155 191 192 191 177 180 199 207 207 192 182 173 173 170 173 173 170 164 162 169 170 166 167 168 161 151 153 171 182 195 187 153 139 155 166 165 121 124 220 147 131 110 119 111 121 124 124 123 112 99 97 103 100 92 92 89 93 91 91 90
189 190 186 187 192 192 188 182 177 178 165 161 162 145 133 111 90 65 79 76 60 125 140 193 188 185 174 199 201 171 182 194 201 200 188 180 177 174 173 176 174 175 173 171 172 175 176 173 169 164 171 163 166 175 196 185 185 188 131 130 85 250 210 150 126 65 97 101 145 133 130 132 124 119 113 112 111 106 107 92 87 77 76 74 74
196 198 189 189 181 178 169 167 164 167 165 166 163 157 167 161 154 152 161 174 181 175 197 199 187 195 202 168 172 183 188 198 196 197 180 172 173 174 173 171 178 178 180 178 175 170 172 173 178 173 173 181 164 164 178 213 203 215 251 319 184 171 156 169 123 173 42 283 175 152 145 143 129 123 125 128 123 118 110 102 87 83 74 75 78
203 184 187 188 180 170 170 169 172 173 167 164 164 161 168 177 182 186 183 189 190 220 192 165 182 183 147 176 181 184 198 193 197 193 178 174 174 170 170 173 174 179 180 169 170 177 181 183 174 175 177 161 154 162 178 181 190 246 255 279 61 115 138 144 183 104 133 244 215 150 165 162 145 135 146 144 136 128 129 117 104 92 80 84 87
186 181 189 185 180 176 170 173 171 172 174 161 167 170 171 173 177 183 182 190 194 195 183 178 162 160 167 173 174 192 199 202 193 195 182 176 175 175 173 174 177 179 173 182 182 182 174 168 178 173 159 171 173 171 177 170 179 200 194 164 74 121 152 102 149 161 151 157 196 241 139 172 152 165 160 153 144 141 139 135 128 104 98 96 104
183 186 189 188 181 175 170 167 171 169 173 170 162 174 170 174 179 179 189 199 180 174 169 155 151 166 171 167 178 187 198 205 206 199 184 180 181 178 177 179 179 179 179 181 177 166 172 167 170 169 177 183 191 185 169 180 189 183 157 120 117 133 121 74 108 83 134 131 139 180 173 196 142 175 161 151 144 141 147 154 155 144 132 118 114
191 187 183 171 173 168 167 168 174 171 170 173 168 171 171 170 180 189 192 192 178 166 163 168 164 167 178 178 180 184 192 197 204 202 189 188 185 182 183 184 184 180 180 180 172 172 174 179 183 183 181 180 188 195 192 186 188 172 170 140 135 132 88 93 109 99 71 102 162 189 181 171 175 202 167 154 152 151 149 147 140 137 128 131 136
188 178 176 175 171 170 168 173 177 171 170 173 172 177 175 178 186 191 195 192 188 172 173 180 170 173 186 186 187 188 186 194 192 199 199 190 187 185 187 188 184 179 179 175 178 179 182 183 188 190 187 183 187 191 197 196 182 169 162 164 162 166 166 171 178 177 147 149 98 157 167 182 169 152 209 168 154 164 162 162 157 155 150 146 162